User: anonymous   Login
Location: Mentone
(34.5413°N, 85.5351°W)
Time: 02:01:54
(UTC-05:00)
Language:

Cosmos 1703 - Orbit

View from above orbital plane
View from above orbital plane
View from above satellite
View from above satellite

Ground track
Ground track

The orbit data is extracted from the following two-line orbital elements,

1 16262U 85108A   14296.81804648  .00005697  00000-0  38474-3 0  5442
2 16262 082.4891 117.5416 0013162 035.0695 325.1396 15.06351035573000
Epoch (UTC): 23 October 2014 19:37:59
Eccentricity: 0.0013162
inclination: 82.4891°
perigee height: 538 km
apogee height: 556 km
right ascension of ascending node: 117.5416°
argument of perigee: 35.0695°
revolutions per day: 15.06351035
mean anomaly at epoch: 325.1396°
orbit number at epoch: 57300

The dashed part of the orbit path shows where the satellite is in the earth's shadow,  

DLR